Terminal Aerodrome Forecast
Issued by NWS Tampa Bay Area, FL

Home | Current Version | Previous Version | Text Only | Print | Product List | Glossary Off
Versions: 1 2 3 4 5 6 7 8 9 10 11 12 13 14

808
FTUS42 KTBW 170520
TAFSRQ
TAF
KSRQ 170520Z 1706/1806 04005KT P6SM SCT030 SCT130 BKN250
     FM171400 05010KT P6SM SCT025 OVC130
     FM171900 06010G15KT P6SM VCSH SCT025 BKN040 OVC130
     FM180100 06010KT P6SM SCT020 OVC040=

USA.gov is the U.S. government's official web portal to all federal, state and local government web resources and services.